| time (UTC) | temp C | wind direction | speed KPH | gust KPH | rain 1hr cm | rain 24hr cm | rain mn cm | humidity % | barometer mb |
| 20260506143326 | 20 | 222 | 0.0 | 4.8 | 0.00 | 0.00 | 0.00 | 69 | 1009.0 |
| 20260506142810 | 20 | 220 | 0.0 | 11.3 | 0.00 | 0.00 | 0.00 | 70 | 1008.8 |
| 20260506142328 | 20 | 197 | 0.0 | 4.8 | 0.00 | 0.00 | 0.00 | 70 | 1008.7 |
| 20260506141812 | 20 | 254 | 0.0 | 3.2 | 0.00 | 0.00 | 0.00 | 70 | 1008.8 |
| 20260506140816 | 20 | 250 | 0.0 | 11.3 | 0.00 | 0.00 | 0.00 | 70 | 1008.8 |
| 20260506135826 | 20 | 222 | 1.6 | 11.3 | 0.00 | 0.00 | 0.00 | 70 | 1008.6 |
| 20260506135332 | 20 | 230 | 1.6 | 14.5 | 0.00 | 0.00 | 0.00 | 70 | 1008.8 |
| 20260506133822 | 20 | 205 | 0.0 | 4.8 | 0.00 | 0.00 | 0.00 | 70 | 1008.9 |
| 20260506133309 | 20 | 245 | 0.0 | 14.5 | 0.00 | 0.00 | 0.00 | 71 | 1009.0 |
| 20260506131812 | 20 | 272 | 1.6 | 6.4 | 0.00 | 0.00 | 0.00 | 72 | 1008.9 |
| 20260506131332 | 19 | 263 | 0.0 | 11.3 | 0.00 | 0.00 | 0.00 | 73 | 1009.0 |
| 20260506130817 | 19 | 242 | 1.6 | 11.3 | 0.00 | 0.00 | 0.00 | 73 | 1009.1 |
| 20260506130328 | 19 | 257 | 0.0 | 11.3 | 0.00 | 0.00 | 0.00 | 73 | 1009.0 |
| 20260506125808 | 19 | 217 | 0.0 | 3.2 | 0.00 | 0.00 | 0.00 | 73 | 1008.8 |
| 20260506125323 | 19 | 293 | 0.0 | 0.0 | 0.00 | 0.00 | 0.00 | 73 | 1008.9 |
| 20260506124329 | 19 | 248 | 0.0 | 8.0 | 0.00 | 0.00 | 0.00 | 74 | 1008.5 |
| 20260506123310 | 18 | 232 | 0.0 | 4.8 | 0.00 | 0.00 | 0.00 | 74 | 1008.6 |
| 20260506122818 | 18 | 201 | 0.0 | 12.9 | 0.00 | 0.00 | 0.00 | 74 | 1008.6 |
| 20260506122310 | 18 | 231 | 0.0 | 12.9 | 0.00 | 0.00 | 0.00 | 74 | 1008.7 |
| 20260506121818 | 18 | 244 | 0.0 | 3.2 | 0.00 | 0.00 | 0.00 | 74 | 1008.8 |
| 20260506121313 | 18 | 246 | 0.0 | 8.0 | 0.00 | 0.00 | 0.00 | 74 | 1008.8 |
| 20260506120825 | 18 | 229 | 1.6 | 8.0 | 0.00 | 0.00 | 0.00 | 74 | 1009.0 |
| 20260506120325 | 18 | 258 | 0.0 | 3.2 | 0.00 | 0.00 | 0.00 | 75 | 1008.9 |
| 20260506115833 | 18 | 272 | 0.0 | 3.2 | 0.00 | 0.00 | 0.00 | 75 | 1009.1 |
| 20260506115313 | 18 | 217 | 0.0 | 4.8 | 0.00 | 0.00 | 0.00 | 75 | 1009.2 |
| 20260506114822 | 18 | 242 | 1.6 | 8.0 | 0.00 | 0.00 | 0.00 | 75 | 1009.2 |
| 20260506114317 | 18 | 284 | 0.0 | 8.0 | 0.00 | 0.00 | 0.00 | 76 | 1009.1 |
| 20260506113824 | 18 | 271 | 0.0 | 3.2 | 0.00 | 0.00 | 0.00 | 76 | 1009.1 |
| 20260506111308 | 18 | 222 | 0.0 | 1.6 | 0.00 | 0.00 | 0.00 | 77 | 1009.0 |
| 20260506110814 | 18 | 236 | 0.0 | 1.6 | 0.00 | 0.00 | 0.00 | 77 | 1009.0 |
| 20260506110325 | 18 | 250 | 0.0 | 9.7 | 0.00 | 0.00 | 0.00 | 77 | 1009.0 |
| 20260506105818 | 18 | 312 | 0.0 | 9.7 | 0.00 | 0.00 | 0.00 | 77 | 1008.9 |
| 20260506104816 | 18 | 238 | 0.0 | 1.6 | 0.00 | 0.00 | 0.00 | 77 | 1008.8 |
| 20260506104331 | 18 | 248 | 0.0 | 6.4 | 0.00 | 0.00 | 0.00 | 77 | 1008.7 |
| 20260506102811 | 18 | 242 | 0.0 | 12.9 | 0.00 | 0.00 | 0.00 | 77 | 1009.0 |
| 20260506102326 | 18 | 290 | 0.0 | 12.9 | 0.00 | 0.00 | 0.00 | 78 | 1008.8 |
| 20260506100310 | 17 | 283 | 0.0 | 0.0 | 0.00 | 0.00 | 0.00 | 78 | 1008.8 |
| 20260506095319 | 17 | 258 | 0.0 | 4.8 | 0.00 | 0.00 | 0.00 | 78 | 1008.6 |
| 20260506094830 | 18 | 209 | 0.0 | 3.2 | 0.00 | 0.00 | 0.00 | 78 | 1008.6 |
| 20260506094319 | 18 | 207 | 0.0 | 3.2 | 0.00 | 0.00 | 0.00 | 78 | 1008.7 |
| 20260506093824 | 18 | 222 | 0.0 | 1.6 | 0.00 | 0.00 | 0.00 | 78 | 1008.6 |
| 20260506093312 | 18 | 225 | 0.0 | 1.6 | 0.00 | 0.00 | 0.00 | 78 | 1008.6 |
| 20260506092824 | 18 | 233 | 0.0 | 3.2 | 0.00 | 0.00 | 0.00 | 78 | 1008.7 |
| 20260506091821 | 18 | 200 | 0.0 | 4.8 | 0.00 | 0.00 | 0.00 | 77 | 1008.7 |
| 20260506091316 | 18 | 265 | 0.0 | 1.6 | 0.00 | 0.00 | 0.00 | 77 | 1008.6 |
| 20260506090824 | 18 | 260 | 0.0 | 4.8 | 0.00 | 0.00 | 0.00 | 77 | 1008.8 |
| 20260506085820 | 18 | 223 | 0.0 | 0.0 | 0.00 | 0.00 | 0.00 | 77 | 1008.8 |
| 20260506085313 | 18 | 233 | 0.0 | 1.6 | 0.00 | 0.00 | 0.00 | 77 | 1008.8 |
| 20260506084819 | 18 | 247 | 0.0 | 0.0 | 0.00 | 0.00 | 0.00 | 76 | 1008.8 |
| 20260506084312 | 18 | 273 | 0.0 | 1.6 | 0.00 | 0.00 | 0.00 | 76 | 1008.8 |
| 20260506082836 | 18 | 223 | 0.0 | 0.0 | 0.00 | 0.00 | 0.00 | 76 | 1008.8 |
| 20260506082318 | 18 | 237 | 0.0 | 1.6 | 0.00 | 0.00 | 0.00 | 76 | 1008.8 |
| 20260506081322 | 18 | 213 | 0.0 | 0.0 | 0.00 | 0.00 | 0.00 | 75 | 1009.0 |
| 20260506080329 | 18 | 175 | 0.0 | 1.6 | 0.00 | 0.00 | 0.00 | 75 | 1008.8 |
| 20260506072322 | 19 | 269 | 0.0 | 8.0 | 0.00 | 0.00 | 0.00 | 73 | 1008.8 |
| 20260506071836 | 19 | 202 | 0.0 | 8.0 | 0.00 | 0.00 | 0.00 | 72 | 1008.8 |
| 20260506071323 | 19 | 230 | 0.0 | 1.6 | 0.00 | 0.00 | 0.00 | 72 | 1008.8 |
| 20260506070328 | 19 | 218 | 0.0 | 3.2 | 0.00 | 0.00 | 0.00 | 71 | 1008.9 |
| 20260506062324 | 19 | 271 | 0.0 | 4.8 | 0.00 | 0.00 | 0.00 | 69 | 1009.2 |
| 20260506061810 | 19 | 213 | 0.0 | 3.2 | 0.00 | 0.00 | 0.00 | 69 | 1009.1 |
| 20260506061327 | 19 | 258 | 0.0 | 0.0 | 0.00 | 0.00 | 0.00 | 69 | 1009.1 |
| 20260506060815 | 19 | 225 | 0.0 | 0.0 | 0.00 | 0.00 | 0.00 | 69 | 1009.1 |
| 20260506060330 | 19 | 221 | 0.0 | 0.0 | 0.00 | 0.00 | 0.00 | 69 | 1009.1 |
| 20260506050825 | 20 | 265 | 0.0 | 0.0 | 0.00 | 0.00 | 0.00 | 65 | 1009.5 |
| 20260506050328 | 20 | 176 | 0.0 | 0.0 | 0.00 | 0.00 | 0.00 | 65 | 1009.6 |
| 20260506044823 | 20 | 248 | 0.0 | 8.0 | 0.00 | 0.00 | 0.00 | 64 | 1009.5 |
| 20260506044314 | 20 | 248 | 0.0 | 8.0 | 0.00 | 0.00 | 0.00 | 64 | 1009.5 |
| 20260506043824 | 20 | 245 | 0.0 | 1.6 | 0.00 | 0.00 | 0.00 | 64 | 1009.6 |
| 20260506042820 | 20 | 232 | 0.0 | 4.8 | 0.00 | 0.00 | 0.00 | 63 | 1009.6 |
| 20260506042326 | 20 | 220 | 0.0 | 8.0 | 0.00 | 0.00 | 0.00 | 63 | 1009.5 |
| 20260506041809 | 20 | 321 | 0.0 | 8.0 | 0.00 | 0.00 | 0.00 | 63 | 1009.5 |
| 20260506041319 | 20 | 165 | 0.0 | 4.8 | 0.00 | 0.00 | 0.00 | 63 | 1009.5 |
| 20260506040824 | 20 | 265 | 0.0 | 3.2 | 0.00 | 0.00 | 0.00 | 63 | 1009.5 |
| 20260506040332 | 20 | 242 | 0.0 | 4.8 | 0.00 | 0.00 | 0.00 | 62 | 1009.5 |
| 20260506035813 | 20 | 248 | 0.0 | 4.8 | 0.00 | 0.00 | 0.00 | 62 | 1009.5 |
| 20260506035323 | 20 | 270 | 0.0 | 4.8 | 0.00 | 0.00 | 0.00 | 62 | 1009.4 |
| 20260506034823 | 20 | 256 | 0.0 | 4.8 | 0.00 | 0.00 | 0.00 | 61 | 1009.5 |
| 20260506033810 | 20 | 245 | 1.6 | 6.4 | 0.00 | 0.00 | 0.00 | 61 | 1009.5 |
| 20260506032328 | 21 | 270 | 0.0 | 8.0 | 0.00 | 0.00 | 0.00 | 61 | 1009.6 |
| 20260506031814 | 21 | 252 | 0.0 | 8.0 | 0.00 | 0.00 | 0.00 | 60 | 1009.5 |
| 20260506031319 | 21 | 242 | 0.0 | 6.4 | 0.00 | 0.00 | 0.00 | 60 | 1009.5 |
| 20260506030809 | 21 | 159 | 0.0 | 12.9 | 0.00 | 0.00 | 0.00 | 60 | 1009.4 |
| 20260506025833 | 21 | 257 | 0.0 | 4.8 | 0.00 | 0.00 | 0.00 | 59 | 1009.4 |
| 20260506025325 | 21 | 182 | 0.0 | 12.9 | 0.00 | 0.00 | 0.00 | 58 | 1009.4 |
| 20260506024833 | 21 | 227 | 0.0 | 12.9 | 0.00 | 0.00 | 0.00 | 58 | 1009.4 |
| 20260506024320 | 22 | 284 | 0.0 | 8.0 | 0.00 | 0.00 | 0.00 | 56 | 1009.4 |
| 20260506023832 | 22 | 217 | 0.0 | 8.0 | 0.00 | 0.00 | 0.00 | 56 | 1009.4 |
| 20260506023314 | 22 | 202 | 1.6 | 8.0 | 0.00 | 0.00 | 0.00 | 55 | 1009.4 |
| 20260506022316 | 22 | 264 | 0.0 | 8.0 | 0.00 | 0.00 | 0.00 | 54 | 1009.2 |
| 20260506021822 | 22 | 236 | 1.6 | 11.3 | 0.00 | 0.00 | 0.00 | 54 | 1009.2 |
| 20260506021334 | 22 | 280 | 1.6 | 14.5 | 0.00 | 0.00 | 0.00 | 53 | 1009.2 |
| 20260506020334 | 23 | 182 | 0.0 | 12.9 | 0.00 | 0.00 | 0.00 | 51 | 1009.3 |
| 20260506015808 | 23 | 234 | 1.6 | 14.5 | 0.00 | 0.00 | 0.00 | 50 | 1009.2 |
| 20260506015317 | 23 | 227 | 1.6 | 19.3 | 0.00 | 0.00 | 0.00 | 50 | 1009.1 |
| 20260506014807 | 23 | 229 | 4.8 | 19.3 | 0.00 | 0.00 | 0.00 | 49 | 1009.1 |
| 20260506014319 | 23 | 225 | 3.2 | 16.1 | 0.00 | 0.00 | 0.00 | 48 | 1009.1 |
| 20260506013330 | 23 | 188 | 4.8 | 17.7 | 0.00 | 0.00 | 0.00 | 46 | 1008.9 |
| 20260506012813 | 23 | 240 | 0.0 | 9.7 | 0.00 | 0.00 | 0.00 | 45 | 1008.9 |
| 20260506012330 | 24 | 242 | 0.0 | 19.3 | 0.00 | 0.00 | 0.00 | 45 | 1008.7 |
| 20260506011815 | 24 | 261 | 0.0 | 19.3 | 0.00 | 0.00 | 0.00 | 44 | 1008.6 |
| 20260506011320 | 24 | 288 | 1.6 | 4.8 | 0.00 | 0.00 | 0.00 | 44 | 1008.6 |
| 20260506010327 | 24 | 219 | 0.0 | 14.5 | 0.00 | 0.00 | 0.00 | 43 | 1008.6 |
| 20260506005809 | 24 | 215 | 0.0 | 14.5 | 0.00 | 0.00 | 0.00 | 43 | 1008.4 |
| 20260506005323 | 25 | 241 | 0.0 | 4.8 | 0.00 | 0.00 | 0.00 | 43 | 1008.4 |
| 20260506004314 | 25 | 226 | 0.0 | 19.3 | 0.00 | 0.00 | 0.00 | 42 | 1008.3 |
| 20260506003819 | 25 | 234 | 0.0 | 4.8 | 0.00 | 0.00 | 0.00 | 42 | 1008.3 |
| 20260506003316 | 25 | 272 | 0.0 | 22.5 | 0.00 | 0.00 | 0.00 | 41 | 1008.3 |
| 20260506002833 | 25 | 262 | 0.0 | 22.5 | 0.00 | 0.00 | 0.00 | 41 | 1008.2 |
| 20260506001830 | 25 | 241 | 0.0 | 8.0 | 0.00 | 0.00 | 0.00 | 40 | 1008.2 |
| 20260506001323 | 25 | 192 | 3.2 | 8.0 | 0.00 | 0.00 | 0.00 | 39 | 1008.1 |
| 20260506000808 | 25 | 249 | 0.0 | 9.7 | 0.00 | 0.00 | 0.00 | 38 | 1008.1 |
| 20260506000326 | 25 | 219 | 0.0 | 9.7 | 0.00 | 0.00 | 0.00 | 38 | 1008.1 |
| 20260505235818 | 25 | 219 | 0.0 | 3.2 | 0.00 | 0.00 | 0.00 | 37 | 1008.0 |
| 20260505235326 | 25 | 260 | 0.0 | 8.0 | 0.00 | 0.00 | 0.00 | 37 | 1008.0 |
| 20260505234335 | 26 | 225 | 0.0 | 9.7 | 0.00 | 0.00 | 0.00 | 36 | 1007.8 |
| 20260505233820 | 26 | 219 | 1.6 | 9.7 | 0.00 | 0.00 | 0.00 | 36 | 1007.7 |
| 20260505233313 | 26 | 228 | 0.0 | 4.8 | 0.00 | 0.00 | 0.00 | 35 | 1007.7 |
| 20260505232323 | 26 | 238 | 0.0 | 8.0 | 0.00 | 0.00 | 0.00 | 35 | 1007.8 |
| 20260505231813 | 26 | 271 | 1.6 | 16.1 | 0.00 | 0.00 | 0.00 | 34 | 1007.7 |
| 20260505230315 | 26 | 285 | 1.6 | 16.1 | 0.00 | 0.00 | 0.00 | 33 | 1007.3 |
| 20260505225819 | 26 | 213 | 0.0 | 9.7 | 0.00 | 0.00 | 0.00 | 33 | 1007.4 |
| 20260505225315 | 26 | 186 | 0.0 | 25.7 | 0.00 | 0.00 | 0.00 | 32 | 1007.3 |
| 20260505224812 | 27 | 230 | 1.6 | 25.7 | 0.00 | 0.00 | 0.00 | 32 | 1007.3 |
| 20260505224331 | 27 | 222 | 1.6 | 25.7 | 0.00 | 0.00 | 0.00 | 32 | 1007.3 |
| 20260505223809 | 27 | 295 | 9.7 | 25.7 | 0.00 | 0.00 | 0.00 | 31 | 1007.2 |
| 20260505223330 | 27 | 200 | 0.0 | 11.3 | 0.00 | 0.00 | 0.00 | 31 | 1007.1 |
| 20260505222812 | 27 | 342 | 1.6 | 19.3 | 0.00 | 0.00 | 0.00 | 31 | 1007.2 |
| 20260505222318 | 27 | 221 | 4.8 | 19.3 | 0.00 | 0.00 | 0.00 | 31 | 1007.0 |
| 20260505221826 | 27 | 317 | 6.4 | 16.1 | 0.00 | 0.00 | 0.00 | 31 | 1007.1 |
| 20260505221332 | 27 | 237 | 1.6 | 14.5 | 0.00 | 0.00 | 0.00 | 30 | 1007.0 |
| 20260505220819 | 27 | 317 | 1.6 | 16.1 | 0.00 | 0.00 | 0.00 | 32 | 1007.2 |
| 20260505220331 | 27 | 271 | 1.6 | 22.5 | 0.00 | 0.00 | 0.00 | 31 | 1007.1 |
| 20260505215824 | 27 | 238 | 1.6 | 22.5 | 0.00 | 0.00 | 0.00 | 31 | 1007.1 |
| 20260505215309 | 27 | 342 | 1.6 | 20.9 | 0.00 | 0.00 | 0.00 | 30 | 1006.9 |
| 20260505214809 | 27 | 278 | 4.8 | 20.9 | 0.00 | 0.00 | 0.00 | 30 | 1006.9 |
| 20260505213816 | 27 | 232 | 3.2 | 17.7 | 0.00 | 0.00 | 0.00 | 31 | 1006.7 |
| 20260505213309 | 27 | 213 | 1.6 | 14.5 | 0.00 | 0.00 | 0.00 | 32 | 1006.6 |
| 20260505212824 | 27 | 272 | 1.6 | 24.1 | 0.00 | 0.00 | 0.00 | 32 | 1006.6 |
| 20260505212311 | 27 | 276 | 4.8 | 24.1 | 0.00 | 0.00 | 0.00 | 31 | 1006.6 |
| 20260505211822 | 27 | 248 | 4.8 | 20.9 | 0.00 | 0.00 | 0.00 | 32 | 1006.6 |
| 20260505211330 | 28 | 321 | 4.8 | 17.7 | 0.00 | 0.00 | 0.00 | 31 | 1006.5 |
| 20260505210811 | 28 | 244 | 1.6 | 24.1 | 0.00 | 0.00 | 0.00 | 31 | 1006.5 |
| 20260505210323 | 28 | 250 | 9.7 | 24.1 | 0.00 | 0.00 | 0.00 | 31 | 1006.5 |
| 20260505205812 | 28 | 253 | 1.6 | 19.3 | 0.00 | 0.00 | 0.00 | 31 | 1006.5 |
| 20260505204819 | 28 | 284 | 6.4 | 25.7 | 0.00 | 0.00 | 0.00 | 33 | 1006.6 |
| 20260505203329 | 28 | 232 | 1.6 | 17.7 | 0.00 | 0.00 | 0.00 | 32 | 1006.6 |
| 20260505202835 | 28 | 273 | 4.8 | 24.1 | 0.00 | 0.00 | 0.00 | 32 | 1006.6 |
| 20260505201313 | 28 | 285 | 6.4 | 27.4 | 0.00 | 0.00 | 0.00 | 31 | 1006.8 |
| 20260505200823 | 28 | 248 | 4.8 | 19.3 | 0.00 | 0.00 | 0.00 | 32 | 1006.7 |
| 20260505200316 | 28 | 307 | 3.2 | 22.5 | 0.00 | 0.00 | 0.00 | 33 | 1006.8 |
| 20260505195826 | 28 | 217 | 3.2 | 30.6 | 0.00 | 0.00 | 0.00 | 33 | 1006.7 |
| 20260505195322 | 28 | 298 | 4.8 | 19.3 | 0.00 | 0.00 | 0.00 | 33 | 1007.2 |
| 20260505194832 | 28 | 222 | 4.8 | 24.1 | 0.00 | 0.00 | 0.00 | 32 | 1006.9 |
| 20260505194317 | 28 | 319 | 6.4 | 24.1 | 0.00 | 0.00 | 0.00 | 32 | 1007.0 |
| 20260505193312 | 28 | 245 | 1.6 | 19.3 | 0.00 | 0.00 | 0.00 | 35 | 1007.0 |
| 20260505192320 | 28 | 248 | 1.6 | 19.3 | 0.00 | 0.00 | 0.00 | 34 | 1007.1 |
| 20260505191316 | 28 | 241 | 4.8 | 22.5 | 0.00 | 0.00 | 0.00 | 35 | 1007.2 |
| 20260505190827 | 28 | 249 | 0.0 | 17.7 | 0.00 | 0.00 | 0.00 | 35 | 1007.2 |
| 20260505190327 | 28 | 259 | 3.2 | 22.5 | 0.00 | 0.00 | 0.00 | 33 | 1007.5 |
| 20260505185825 | 28 | 200 | 4.8 | 22.5 | 0.00 | 0.00 | 0.00 | 33 | 1007.5 |
| 20260505184808 | 28 | 324 | 4.8 | 29.0 | 0.00 | 0.00 | 0.00 | 33 | 1007.6 |
| 20260505182814 | 28 | 202 | 1.6 | 17.7 | 0.00 | 0.00 | 0.00 | 35 | 1008.0 |
| 20260505181318 | 28 | 230 | 3.2 | 24.1 | 0.00 | 0.00 | 0.00 | 38 | 1008.0 |
| 20260505180812 | 28 | 272 | 8.0 | 24.1 | 0.00 | 0.00 | 0.00 | 38 | 1008.1 |
| 20260505180322 | 28 | 213 | 1.6 | 17.7 | 0.00 | 0.00 | 0.00 | 38 | 1008.1 |
| 20260505175828 | 27 | 244 | 3.2 | 17.7 | 0.00 | 0.00 | 0.00 | 39 | 1008.0 |
| 20260505174815 | 27 | 257 | 6.4 | 20.9 | 0.00 | 0.00 | 0.00 | 38 | 1008.2 |
| 20260505174326 | 27 | 350 | 0.0 | 16.1 | 0.00 | 0.00 | 0.00 | 39 | 1008.2 |
| 20260505173313 | 27 | 280 | 1.6 | 16.1 | 0.00 | 0.00 | 0.00 | 42 | 1008.4 |
| 20260505172820 | 27 | 338 | 0.0 | 17.7 | 0.00 | 0.00 | 0.00 | 42 | 1008.4 |
| 20260505171810 | 27 | 238 | 0.0 | 9.7 | 0.00 | 0.00 | 0.00 | 43 | 1008.6 |
| 20260505171324 | 27 | 229 | 1.6 | 9.7 | 0.00 | 0.00 | 0.00 | 42 | 1008.7 |
| 20260505170813 | 26 | 302 | 1.6 | 11.3 | 0.00 | 0.00 | 0.00 | 44 | 1008.8 |
| 20260505170329 | 26 | 206 | 1.6 | 11.3 | 0.00 | 0.00 | 0.00 | 44 | 1008.8 |
| 20260505165810 | 26 | 309 | 0.0 | 12.9 | 0.00 | 0.00 | 0.00 | 45 | 1008.8 |
| 20260505165323 | 26 | 326 | 0.0 | 12.9 | 0.00 | 0.00 | 0.00 | 45 | 1008.7 |
| 20260505164808 | 26 | 231 | 0.0 | 0.0 | 0.00 | 0.00 | 0.00 | 44 | 1008.9 |
| 20260505164330 | 26 | 227 | 4.8 | 12.9 | 0.00 | 0.00 | 0.00 | 44 | 1008.9 |
| 20260505163817 | 26 | 227 | 0.0 | 6.4 | 0.00 | 0.00 | 0.00 | 46 | 1008.9 |
| 20260505163328 | 25 | 167 | 0.0 | 0.0 | 0.00 | 0.00 | 0.00 | 47 | 1008.9 |
| 20260505162819 | 25 | 229 | 0.0 | 12.9 | 0.00 | 0.00 | 0.00 | 47 | 1009.2 |
| 20260505162308 | 25 | 218 | 0.0 | 12.9 | 0.00 | 0.00 | 0.00 | 46 | 1009.3 |
| 20260505161816 | 25 | 288 | 0.0 | 6.4 | 0.00 | 0.00 | 0.00 | 48 | 1009.3 |
| 20260505153333 | 23 | 269 | 0.0 | 4.8 | 0.00 | 0.00 | 0.00 | 54 | 1009.9 |
| 20260505152819 | 23 | 265 | 0.0 | 16.1 | 0.00 | 0.00 | 0.00 | 52 | 1010.0 |
| 20260505152311 | 23 | 288 | 1.6 | 16.1 | 0.00 | 0.00 | 0.00 | 53 | 1010.0 |
| 20260505151312 | 23 | 205 | 0.0 | 4.8 | 0.00 | 0.00 | 0.00 | 54 | 1010.2 |
| 20260505150825 | 22 | 260 | 0.0 | 3.2 | 0.00 | 0.00 | 0.00 | 54 | 1010.1 |